Regional Weather Roundup
Issued by NWS Goodland, KS

Home | Current Version | Previous Version | Text Only | Print | Product List | Glossary Off
Versions: 1 2 3 4 5 6 7 8 9 10 11 12 13 14 15 16 17 18 19 20 21 22 23 24 25 26 27 28 29 30 31 32 33 34 35 36 37 38 39 40 41 42 43 44 45 46 47 48 49 50

000
ASUS43 KGLD 020259
RWRGLD

GOODLAND FORECAST AREA HOURLY WEATHER ROUNDUP
NATIONAL WEATHER SERVICE GOODLAND KS
900 PM MDT TUE SEP 01 2015

...OFFICIAL OBSERVATIONS...

CITY           SKY/WX    TMP DP  RH WIND       PRES   REMARKS
GOODLAND KS    MOCLDY    74  59  59 S10       29.99R
HILL CITY KS   MOCLDY    83  58  42 SW5       29.91R
IMPERIAL NEB   CLEAR     71  56  58 SE7       29.94R
MCCOOK NEB     PTCLDY    78  61  55 SE5       29.92R
AKRON CO       CLEAR     73  40  30 S7        30.03R
BURLINGTON CO  PTCLDY    71  58  63 SE9       30.04R
LIMON CO       MOCLDY    70  47  43 SW9       30.11R
$$

...UNOFFICIAL OBSERVATIONS...

CITY           SKY/WX    TMP DP  RH WIND       PRES   REMARKS
COLBY KS       CLEAR     79  63  57 E6        29.97S
GOVE KS          N/A     77  32  19 MISG        N/A
LENORA KS        N/A     80  32  17 MISG        N/A
NORTON KS      CLEAR     79  54  41 S5        29.91R
TRENTON NEB      N/A     77  32  19 S9          N/A
KIT CARSON CO    N/A     73  57  57 MISG        N/A
$$



USA.gov is the U.S. government's official web portal to all federal, state and local government web resources and services.